Date,TemperatureHighF,TemperatureAvgF,TemperatureLowF,DewpointHighF,DewpointAvgF,DewpointLowF,HumidityHigh,HumidityAvg,HumidityLow,PressureMaxIn,PressureMinIn,WindSpeedMaxMPH,WindSpeedAvgMPH,GustSpeedMaxMPH,PrecipitationSumIn
2013-1-1,52.4,40.4,30.5,39.0,33.7,27.5,95,78,52,30.31,30.21,4,1,6,0.00
2013-1-2,51.6,40.4,32.4,38.0,33.9,31.1,97,79,48,30.31,30.22,7,2,10,0.00
2013-1-3,52.8,40.6,30.2,39.0,33.8,27.9,95,78,54,30.27,30.16,4,1,5,0.00
2013-1-4,52.7,40.7,30.4,39.9,35.5,29.1,96,83,57,30.29,30.19,4,1,5,0.01
2013-1-5,56.8,43.4,31.5,42.3,38.0,30.5,97,83,56,30.32,30.20,3,1,6,0.00
2013-1-6,52.5,43.8,34.7,44.1,41.1,33.9,98,90,70,30.29,30.10,6,2,7,0.49
2013-1-7,52.0,44.2,36.8,46.5,42.2,36.5,99,93,76,30.20,30.11,5,1,7,0.34
2013-1-8,48.1,40.8,35.5,44.4,39.8,35.2,99,96,86,30.27,30.16,6,1,7,0.01
2013-1-9,54.7,45.1,35.8,46.5,42.1,35.3,99,90,73,30.27,30.16,3,1,5,0.01
2013-1-10,50.3,44.2,36.7,46.7,41.3,34.2,98,90,74,30.16,29.93,8,2,11,0.02
2013-1-11,48.4,39.4,30.4,38.6,33.5,28.9,96,81,55,30.18,30.05,8,2,11,0.01
2013-1-12,50.6,38.5,29.5,35.4,30.1,27.1,96,74,41,30.25,30.14,4,1,5,0.00
2013-1-13,45.0,35.4,26.8,29.7,26.1,22.7,92,71,41,30.26,30.16,4,1,6,0.00
2013-1-14,43.5,35.2,23.5,30.0,24.1,14.7,93,66,38,30.29,30.18,7,3,12,0.00
2013-1-15,48.4,38.3,28.6,28.1,23.9,18.6,77,58,31,30.45,30.28,6,2,8,0.00
2013-1-16,52.5,40.0,32.0,35.1,31.4,27.0,90,73,47,30.52,30.44,3,1,4,0.00
2013-1-17,55.3,41.8,30.4,38.7,33.6,28.4,94,74,47,30.46,30.29,3,0,5,0.00
2013-1-18,58.4,44.0,31.0,39.6,35.2,28.9,94,73,45,30.31,30.19,3,0,5,0.00
2013-1-19,59.2,44.4,30.0,41.1,35.5,28.7,97,74,41,30.27,30.16,5,1,5,0.00
2013-1-20,53.7,42.3,36.5,39.7,35.5,31.4,88,77,54,30.30,30.18,5,1,7,0.00
2013-1-21,61.2,45.9,31.4,39.7,35.6,29.6,95,70,38,30.26,30.14,4,1,5,0.00
2013-1-22,61.0,44.8,33.4,40.3,36.3,31.4,94,74,40,30.22,30.13,2,0,4,0.00
2013-1-23,60.8,47.8,34.2,43.7,39.2,32.4,95,74,44,30.17,30.04,5,1,7,0.00
2013-1-24,59.6,49.5,45.0,48.4,44.0,39.7,98,82,51,30.11,30.00,6,2,8,0.14
2013-1-25,57.0,51.7,47.1,52.6,50.1,46.6,98,94,83,30.20,30.08,6,2,8,0.03
2013-1-26,64.5,56.8,51.5,56.4,53.7,51.0,100,90,71,30.19,30.01,5,2,8,0.01
2013-1-27,60.7,52.4,44.2,53.4,47.2,40.8,99,84,53,30.04,29.93,7,4,10,0.00
2013-1-28,53.8,44.9,37.1,41.7,37.7,32.9,96,77,45,30.16,30.04,6,1,9,0.00
2013-1-29,56.7,44.5,33.0,39.5,36.1,30.7,94,74,44,30.28,30.14,9,2,14,0.00
2013-1-30,58.5,46.8,37.3,42.0,38.5,34.7,92,75,48,30.35,30.24,9,2,14,0.00
2013-1-31,61.9,49.0,37.4,45.3,41.3,35.3,93,76,53,30.37,30.27,5,1,7,0.00
2013-2-1,62.2,49.8,38.0,48.6,43.3,36.8,97,80,59,30.32,30.20,4,1,5,0.00
2013-2-2,65.3,51.2,36.1,50.8,44.2,35.3,98,79,54,30.25,30.14,3,1,5,0.00
2013-2-3,64.2,50.9,42.3,48.0,44.4,40.1,94,80,53,30.30,30.20,3,1,4,0.00
2013-2-4,61.4,50.0,40.0,49.8,44.7,39.2,98,83,58,30.25,30.11,5,1,7,0.01
2013-2-5,65.2,51.8,41.0,49.2,45.1,39.4,95,79,54,30.18,30.05,4,1,5,0.00
2013-2-6,56.3,47.1,40.4,46.2,43.0,39.0,97,86,68,30.15,30.04,6,2,9,0.00
2013-2-7,60.4,46.8,35.9,45.4,40.2,35.4,99,80,46,30.19,30.10,5,2,10,0.01
2013-2-8,56.6,47.2,40.2,46.3,39.9,33.9,90,77,44,30.16,29.97,7,3,10,0.02
2013-2-9,56.6,44.4,34.9,41.8,34.3,29.5,97,70,38,30.01,29.91,11,4,16,0.00
2013-2-10,57.6,44.5,32.4,35.6,31.7,27.6,86,63,36,30.10,29.97,6,2,7,0.00
2013-2-11,60.7,46.6,33.6,39.8,35.5,29.5,88,67,44,30.14,30.00,6,2,11,0.00
2013-2-12,63.0,48.2,34.2,37.1,33.0,26.9,80,58,32,30.26,30.08,3,2,5,0.00
2013-2-13,61.0,48.0,36.4,40.3,37.3,32.5,86,68,44,30.39,30.26,4,1,5,0.00
2013-2-14,64.6,50.1,36.6,42.2,39.3,33.7,90,69,43,30.34,30.21,3,1,6,0.00
2013-2-15,69.6,52.7,38.9,46.7,42.7,36.6,93,71,43,30.26,30.16,4,1,5,0.00
2013-2-16,70.8,55.3,41.2,48.2,43.8,38.2,91,67,42,30.30,30.22,4,1,5,0.00
2013-2-17,70.4,53.7,41.3,45.9,41.9,37.9,89,66,35,30.25,30.01,4,1,6,0.00
2013-2-18,64.6,51.4,40.0,46.2,42.0,36.3,90,72,46,30.04,29.94,5,2,8,0.00
2013-2-19,58.9,48.9,40.4,45.5,41.0,37.4,90,75,59,30.01,29.91,10,5,14,0.00
2013-2-20,45.5,41.2,32.4,43.0,37.7,31.6,97,87,76,29.92,29.74,10,4,11,0.24
2013-2-21,59.6,44.6,29.8,39.5,33.4,29.3,99,69,35,30.04,29.84,10,3,17,0.01
2013-2-22,60.4,47.2,36.8,41.0,35.5,30.7,91,67,33,30.17,30.03,8,3,14,0.00
2013-2-23,64.4,50.5,35.6,42.1,37.6,32.3,90,64,33,30.25,30.13,7,3,9,0.00
2013-2-24,59.1,49.6,41.2,44.1,33.0,25.0,93,57,29,30.24,30.13,11,6,16,0.00
2013-2-25,62.6,50.0,37.5,32.6,29.4,26.3,67,47,27,30.25,30.15,10,5,13,0.00
2013-2-26,62.8,51.0,38.8,38.3,34.8,31.3,79,56,32,30.27,30.16,5,2,8,0.00
2013-2-27,65.1,50.2,35.3,34.6,30.6,23.2,82,51,23,30.21,30.11,11,4,17,0.00
2013-2-28,68.9,54.2,37.3,40.7,35.3,28.3,77,51,23,30.36,30.21,5,2,8,0.00
2013-3-1,70.5,57.7,45.7,43.8,41.1,36.3,77,56,35,30.44,30.34,7,2,9,0.00
2013-3-2,73.2,58.4,43.8,49.7,45.9,39.8,87,65,41,30.41,30.24,4,1,6,0.00
2013-3-3,72.5,60.8,48.8,52.9,49.3,44.4,86,67,43,30.24,30.05,3,1,5,0.00
2013-3-4,65.6,58.0,48.0,54.2,50.0,45.2,90,75,66,30.07,29.99,6,3,12,0.00
2013-3-5,67.4,53.9,44.2,52.2,47.0,40.7,96,79,55,30.13,30.01,6,3,8,0.00
2013-3-6,60.7,51.9,44.4,44.7,42.3,39.6,87,71,50,30.04,29.84,9,4,15,0.11
2013-3-7,58.3,51.3,45.0,45.2,41.0,33.6,90,69,41,30.06,29.85,10,4,15,0.21
2013-3-8,58.6,49.7,39.9,43.2,40.8,38.0,94,73,50,29.99,29.85,5,1,7,0.00
2013-3-9,65.9,50.9,38.4,44.8,40.0,34.6,94,70,34,30.08,29.81,7,3,10,0.00
2013-3-10,69.4,54.3,39.9,46.2,38.1,31.2,94,59,25,30.30,30.08,10,3,16,0.00
2013-3-11,68.3,54.3,39.5,45.4,41.6,33.5,86,64,38,30.36,30.24,6,2,7,0.00
2013-3-12,73.5,58.0,42.1,48.0,45.0,39.9,93,65,32,30.26,30.09,3,1,5,0.00
2013-3-13,74.5,61.0,45.9,50.9,48.2,42.8,90,65,41,30.17,30.05,4,1,7,0.00
2013-3-14,78.1,63.5,48.3,55.7,50.9,45.6,93,66,36,30.17,30.06,5,1,7,0.00
2013-3-15,78.7,64.6,50.9,56.7,51.5,46.7,87,65,39,30.14,30.05,4,1,7,0.00
2013-3-16,76.3,62.1,51.1,55.4,50.3,46.1,91,68,36,30.10,29.99,5,1,8,0.00
2013-3-17,76.5,61.8,47.9,51.6,45.8,33.7,93,60,22,30.07,29.96,8,2,11,0.00
2013-3-18,71.0,58.1,45.2,42.5,39.7,33.1,76,53,26,30.12,30.00,6,2,13,0.00
2013-3-19,68.8,58.7,43.5,46.1,42.5,39.5,87,57,35,30.10,30.00,5,2,6,0.00
2013-3-20,71.2,58.5,49.3,53.0,47.2,43.1,96,69,40,30.13,30.04,6,2,14,0.15
2013-3-21,60.7,55.6,49.1,56.5,53.1,48.3,98,91,79,30.10,30.06,6,3,10,0.53
2013-3-22,66.4,53.9,43.9,49.9,40.5,28.2,99,65,24,30.11,29.99,8,4,13,0.01
2013-3-23,64.7,52.4,40.9,32.3,28.1,16.9,68,43,18,30.09,30.01,15,7,22,0.00
2013-3-24,68.5,53.4,37.1,40.2,33.2,28.5,75,49,23,30.15,30.02,5,2,7,0.00
2013-3-25,73.8,59.4,45.0,45.4,40.3,35.1,78,52,27,30.09,29.93,4,1,6,0.00
2013-3-26,71.2,57.7,47.4,49.0,43.5,35.9,83,61,34,29.99,29.89,8,4,11,0.00
2013-3-27,73.2,58.8,46.3,48.9,46.1,42.6,87,65,37,29.99,29.89,5,2,10,0.00
2013-3-28,70.2,59.2,47.8,53.1,49.4,43.5,86,71,52,30.01,29.92,9,3,12,0.00
2013-3-29,69.6,60.0,50.3,54.8,51.9,49.0,96,76,53,30.09,30.01,5,2,8,0.00
2013-3-30,78.5,63.1,47.1,53.1,49.4,44.9,96,65,31,30.10,29.99,5,2,6,0.00
2013-3-31,78.3,64.3,52.5,55.4,51.5,47.4,96,66,39,30.03,29.94,7,2,13,0.32
2013-4-1,71.4,59.9,54.1,57.3,52.4,46.4,98,79,44,30.09,29.97,10,3,17,1.28
2013-4-2,69.3,59.9,50.9,54.3,51.9,48.5,97,76,52,30.15,30.07,5,1,9,0.01
2013-4-3,72.9,60.8,48.2,56.1,52.0,45.5,93,75,49,30.16,30.04,6,2,12,0.00
2013-4-4,75.7,63.7,50.6,57.1,53.0,46.8,92,70,49,30.13,29.95,4,1,5,0.00
2013-4-5,66.0,58.0,52.2,58.6,52.9,40.1,96,84,47,30.12,29.96,9,4,13,0.40
2013-4-6,68.8,59.9,51.9,53.4,51.8,49.1,96,76,55,30.15,30.08,6,3,11,0.00
2013-4-7,68.8,59.4,52.1,55.3,52.3,49.3,92,78,59,30.18,30.07,5,3,10,0.00
2013-4-8,68.4,57.4,49.1,54.8,49.2,44.3,92,75,57,30.11,29.73,12,6,16,0.01
2013-4-9,67.5,56.8,46.9,46.4,36.8,31.2,90,50,27,30.03,29.76,17,9,23,0.01
2013-4-10,74.7,61.2,46.1,42.0,38.1,33.5,69,45,24,30.08,30.01,15,6,24,0.00
2013-4-11,87.2,69.8,49.7,56.8,48.1,37.9,76,49,26,30.17,29.94,6,2,10,0.00
2013-4-12,78.6,65.1,51.7,54.0,44.7,38.0,86,52,25,29.97,29.79,9,3,13,0.00
2013-4-13,84.1,66.2,50.1,54.0,46.4,36.1,85,54,19,29.88,29.76,4,2,6,0.00
2013-4-14,79.3,63.9,49.3,53.2,48.5,44.8,87,60,35,29.86,29.75,6,2,8,0.00
2013-4-15,75.3,60.4,47.9,46.2,40.3,27.8,86,52,20,29.88,29.71,8,4,12,0.00
2013-4-16,63.5,52.2,44.2,47.2,41.9,33.9,91,69,41,29.94,29.80,13,3,17,0.06
2013-4-17,67.4,54.7,42.7,35.0,30.3,23.3,69,42,19,30.18,29.94,13,7,20,0.00
2013-4-18,69.1,57.0,43.0,34.6,29.4,22.5,67,39,19,30.25,30.16,13,6,18,0.00
2013-4-19,75.5,61.5,42.5,44.9,34.8,24.3,73,41,15,30.26,30.16,4,2,7,0.00
2013-4-20,82.0,67.7,50.9,47.9,44.3,41.9,77,46,27,30.23,30.02,5,2,8,0.00
2013-4-21,83.1,68.0,53.3,46.4,40.2,24.7,67,41,12,30.09,29.93,9,4,15,0.00
2013-4-22,86.8,70.4,50.5,50.8,45.5,36.3,79,46,19,30.02,29.89,6,2,8,0.00
2013-4-23,88.1,71.4,55.3,50.2,40.5,31.8,74,37,14,29.95,29.81,9,5,14,0.00
2013-4-24,84.5,69.0,54.4,44.7,34.2,27.5,65,31,13,29.92,29.80,10,4,13,0.00
2013-4-25,89.3,67.9,50.0,51.2,41.7,29.1,84,49,12,29.89,29.71,8,4,12,0.00
2013-4-26,76.8,61.8,50.4,51.5,49.0,46.7,88,66,38,30.10,29.89,8,4,12,0.00
2013-4-27,84.8,65.7,49.2,54.9,50.9,46.5,91,62,33,30.19,30.08,4,2,7,0.00
2013-4-28,89.7,70.3,51.1,57.5,52.7,47.7,88,58,28,30.19,29.99,5,2,6,0.00
2013-4-29,90.2,74.1,55.7,54.8,51.3,44.4,83,49,22,30.02,29.82,6,2,8,0.00
2013-4-30,90.2,75.6,59.5,54.1,49.0,41.1,80,43,19,29.86,29.71,9,3,15,0.00
2013-5-1,83.0,71.2,60.5,43.3,31.2,23.5,46,25,12,29.87,29.74,12,8,22,0.00
2013-5-2,88.4,72.7,57.0,41.7,31.2,24.7,37,23,11,30.09,29.87,11,6,18,0.00
2013-5-3,91.1,74.4,54.3,49.1,35.5,25.2,55,29,10,30.15,30.00,6,2,10,0.00
2013-5-4,91.9,76.6,58.6,51.5,44.9,32.8,64,37,13,30.01,29.71,6,2,9,0.00
2013-5-5,89.5,73.9,56.6,49.6,42.6,31.6,73,38,13,29.71,29.47,9,4,15,0.00
2013-5-6,74.8,65.5,54.1,50.6,48.5,46.3,80,56,37,29.81,29.56,8,4,13,0.00
2013-5-7,73.4,63.0,57.5,57.0,53.8,49.2,95,74,47,29.95,29.81,7,3,11,0.88
2013-5-8,73.5,66.0,57.1,56.3,53.4,50.9,94,65,47,30.00,29.94,4,2,8,0.00
2013-5-9,76.7,64.1,53.3,54.9,52.0,48.8,88,67,40,30.09,30.00,6,4,9,0.01
2013-5-10,82.7,65.8,52.5,59.0,53.4,49.4,90,67,41,30.11,29.99,7,4,11,0.00
2013-5-11,89.0,70.1,53.2,61.8,56.1,49.9,89,64,38,30.14,30.00,5,2,7,0.00
2013-5-12,94.7,77.8,58.6,62.4,57.9,53.1,82,53,31,30.09,29.97,5,2,7,0.00
2013-5-13,95.5,77.2,61.4,56.5,49.1,31.8,70,42,12,30.08,29.94,5,3,11,0.00
2013-5-14,94.1,75.9,59.0,59.8,52.5,46.2,74,48,20,30.03,29.84,5,3,9,0.00
2013-5-15,90.0,72.9,57.1,58.8,53.3,46.2,80,53,33,29.91,29.82,8,4,11,0.00
2013-5-16,79.4,66.5,55.3,51.4,48.2,45.4,70,54,35,29.99,29.91,8,6,13,0.00
2013-5-17,77.1,63.7,53.8,53.9,49.3,47.2,79,61,41,29.94,29.88,8,6,12,0.00
2013-5-18,77.2,63.0,52.1,52.9,46.0,40.2,81,57,27,30.04,29.93,7,4,18,0.00
2013-5-19,82.8,67.7,50.1,53.1,47.3,37.1,81,53,21,30.10,30.00,6,2,11,0.00
2013-5-20,84.3,71.9,57.9,49.1,46.2,41.5,72,43,23,30.09,29.92,10,6,16,0.00
2013-5-21,90.8,75.8,59.4,46.8,41.4,17.2,59,33,7,29.98,29.82,8,4,12,0.00
2013-5-22,83.3,68.2,50.8,49.7,41.7,24.0,63,41,12,29.96,29.80,11,6,19,0.00
2013-5-23,72.0,59.6,47.7,43.7,31.1,14.8,74,39,12,29.97,29.84,11,5,16,0.00
2013-5-24,75.3,62.3,48.4,45.0,38.9,28.4,79,47,19,29.96,29.86,6,3,11,0.00
2013-5-25,79.8,64.7,50.5,46.9,42.0,29.5,72,48,17,29.98,29.87,6,4,11,0.00
2013-5-26,79.8,64.0,50.8,49.3,46.4,40.9,80,56,26,29.99,29.90,6,4,12,0.00
2013-5-27,80.2,65.4,52.9,52.9,49.5,43.1,84,59,28,30.06,29.97,7,4,14,0.00
2013-5-28,68.0,60.7,53.5,56.3,52.3,47.2,95,75,56,30.07,29.94,6,3,9,0.06
2013-5-29,78.7,68.0,57.9,58.2,54.0,48.7,94,64,37,29.96,29.85,6,3,10,0.01
2013-5-30,82.8,69.0,56.6,56.8,51.7,33.6,90,58,18,29.91,29.82,7,3,10,0.05
2013-5-31,85.7,70.6,54.4,54.3,48.7,33.6,83,51,16,29.94,29.87,6,2,9,0.00
2013-6-1,93.1,76.1,54.5,52.3,48.7,43.9,84,42,20,29.97,29.84,10,4,16,0.00
2013-6-2,96.6,80.9,62.5,57.2,51.0,42.9,67,39,17,29.87,29.68,5,2,11,0.00
2013-6-3,97.5,80.5,63.8,56.5,52.1,44.4,68,41,17,29.70,29.57,6,2,10,0.00
2013-6-4,94.5,74.5,57.1,60.0,54.6,50.8,80,53,24,29.77,29.64,7,4,13,0.00
2013-6-5,85.0,68.1,55.0,58.7,53.9,50.0,84,63,39,29.90,29.77,7,5,12,0.00
2013-6-6,89.9,70.2,54.1,61.8,55.1,49.9,87,62,38,29.95,29.80,7,4,10,0.00
2013-6-7,96.2,74.6,55.2,63.3,57.1,50.9,87,58,31,29.89,29.74,5,3,7,0.00
2013-6-8,104.1,83.6,60.5,68.5,61.0,53.8,79,50,20,29.83,29.65,7,2,10,0.00
2013-6-9,107.2,87.4,64.3,65.8,60.9,54.7,71,45,24,29.69,29.57,8,4,18,0.00
2013-6-10,81.7,68.3,58.0,59.0,55.6,52.9,83,65,46,29.82,29.69,10,6,15,0.00
2013-6-11,72.8,65.0,57.5,55.6,53.9,52.6,84,68,52,29.92,29.78,9,4,13,0.00
2013-6-12,85.7,72.6,56.7,56.8,54.3,49.7,85,56,29,29.95,29.83,7,3,11,0.00
2013-6-13,89.6,73.1,57.6,55.8,50.0,43.1,73,47,21,29.94,29.83,6,4,11,0.00
2013-6-14,86.5,72.1,55.4,50.5,42.5,26.8,70,39,13,30.04,29.90,6,2,11,0.00
2013-6-15,90.0,74.4,59.8,49.5,44.5,35.9,65,37,15,29.91,29.76,9,3,12,0.00
2013-6-16,90.7,74.0,58.7,54.1,47.5,40.9,71,43,18,29.92,29.78,7,4,10,0.00
2013-6-17,93.3,75.4,57.0,54.6,50.3,42.2,74,45,19,30.00,29.92,5,3,12,0.00
2013-6-18,90.1,72.5,58.0,55.8,52.3,47.0,83,53,23,30.01,29.91,8,5,14,0.00
2013-6-19,80.4,66.5,54.7,53.4,50.9,47.9,84,60,33,29.96,29.86,9,5,15,0.00
2013-6-20,80.5,67.7,52.9,50.1,44.9,28.6,83,49,16,30.02,29.92,7,3,10,0.00
2013-6-21,85.8,71.6,54.2,51.1,47.8,37.5,79,46,19,29.95,29.86,6,2,10,0.00
2013-6-22,88.2,74.6,57.3,51.4,48.6,42.1,72,43,21,29.92,29.83,6,2,11,0.00
2013-6-23,94.0,77.6,58.8,54.0,48.9,34.6,73,41,13,29.88,29.75,8,3,11,0.00
2013-6-24,78.1,67.5,60.6,62.4,58.1,52.9,85,73,50,29.82,29.75,8,5,13,0.00
2013-6-25,69.9,63.9,61.7,62.6,59.9,55.8,97,87,68,29.90,29.76,6,2,9,0.21
2013-6-26,78.9,68.8,62.6,68.4,64.0,61.4,98,86,67,29.97,29.87,7,2,12,0.20
2013-6-27,90.4,77.3,62.4,66.2,62.6,58.2,97,64,35,30.02,29.93,6,2,12,0.00
2013-6-28,96.8,81.0,63.8,65.7,61.3,48.8,88,55,21,30.04,29.94,5,2,9,0.00
2013-6-29,105.6,88.8,67.9,66.7,62.2,56.6,80,45,22,29.96,29.81,5,2,9,0.00
2013-6-30,106.5,91.6,74.0,67.8,60.8,49.0,62,39,15,29.86,29.71,6,2,9,0.00
2013-7-1,107.5,90.2,72.3,63.5,59.9,52.3,65,40,17,29.77,29.66,5,2,8,0.00
2013-7-2,107.3,90.1,70.1,67.0,61.2,49.7,64,41,15,29.78,29.72,6,2,9,0.00
2013-7-3,105.3,88.3,75.0,66.7,61.4,55.2,65,43,25,29.84,29.73,8,4,11,0.00
2013-7-4,107.2,89.3,72.1,68.8,63.3,57.3,62,44,24,29.83,29.66,6,2,9,0.00
2013-7-5,109.0,90.8,71.6,67.4,61.7,48.8,62,40,18,29.70,29.55,7,3,13,0.00
2013-7-6,88.7,75.3,60.8,57.7,54.2,48.1,75,49,32,29.70,29.60,8,5,14,0.00
2013-7-7,90.9,73.7,58.3,58.8,54.3,51.1,82,54,29,29.75,29.65,5,3,8,0.00
2013-7-8,95.5,78.0,60.7,58.4,49.7,24.9,75,43,11,29.80,29.70,6,3,12,0.00
2013-7-9,96.1,76.8,60.6,57.4,48.5,32.8,74,43,13,29.92,29.80,6,3,8,0.00
2013-7-10,100.6,84.7,64.5,55.6,50.9,42.3,66,35,14,29.98,29.86,6,2,8,0.00
2013-7-11,98.6,81.0,61.7,57.8,49.9,37.5,66,39,13,29.90,29.79,6,4,11,0.00
2013-7-12,93.1,72.9,56.2,54.0,50.2,36.1,83,51,14,29.88,29.77,7,4,11,0.00
2013-7-13,91.5,73.6,56.4,57.8,52.9,46.8,85,52,22,29.89,29.79,6,3,8,0.00
2013-7-14,96.6,79.1,60.4,55.0,50.1,35.4,70,41,12,29.91,29.82,5,3,9,0.00
2013-7-15,98.0,78.2,62.3,55.7,51.4,44.6,66,43,17,29.93,29.79,6,3,8,0.00
2013-7-16,89.4,69.8,55.4,56.4,52.2,41.2,89,58,20,29.84,29.73,7,5,11,0.00
2013-7-17,81.8,67.0,54.5,55.8,53.9,51.9,91,66,38,29.99,29.81,8,5,12,0.00
2013-7-18,93.3,74.2,56.0,57.2,52.7,32.5,90,54,12,30.06,29.94,4,1,7,0.00
2013-7-19,98.3,79.0,58.3,56.9,51.3,35.8,85,45,12,30.00,29.84,5,2,10,0.00
2013-7-20,101.5,82.0,60.9,58.9,54.9,47.1,76,44,17,29.88,29.71,6,2,8,0.00
2013-7-21,101.8,81.0,63.5,60.4,56.5,53.2,71,46,21,29.78,29.62,6,3,11,0.00
2013-7-22,96.6,79.4,65.2,61.5,54.9,49.0,65,45,24,29.83,29.67,8,4,12,0.00
2013-7-23,94.1,79.4,66.3,57.2,51.2,40.0,70,40,17,29.92,29.81,11,4,17,0.00
2013-7-24,93.3,79.5,67.6,55.3,51.3,41.4,58,39,18,29.94,29.87,7,3,9,0.00
2013-7-25,99.4,83.1,65.0,61.0,56.7,52.1,68,43,25,29.93,29.80,5,3,9,0.00
2013-7-26,99.5,82.4,65.6,63.0,57.2,52.7,64,44,29,29.93,29.83,7,4,10,0.00
2013-7-27,98.6,80.5,62.6,62.3,57.5,53.0,73,49,28,30.01,29.88,6,4,9,0.00
2013-7-28,94.4,78.0,63.3,62.0,57.9,54.5,75,52,30,29.94,29.75,6,4,12,0.00
2013-7-29,92.1,72.4,58.0,62.3,55.8,51.0,85,59,32,29.81,29.70,7,4,13,0.00
2013-7-30,83.9,64.6,55.5,55.8,53.5,52.0,88,70,37,29.98,29.80,7,4,12,0.00
2013-7-31,92.9,72.4,55.1,59.8,54.5,45.5,90,58,22,30.06,29.92,6,3,8,0.00
2013-8-1,90.6,72.0,56.1,58.3,53.2,48.4,86,55,24,30.02,29.89,7,5,10,0.00
2013-8-2,89.0,72.4,58.3,55.0,51.9,48.7,76,52,26,30.00,29.87,6,3,11,0.00
2013-8-3,93.8,75.7,57.6,56.2,51.7,44.2,82,48,19,29.93,29.80,5,2,9,0.00
2013-8-4,93.9,74.6,57.9,55.2,52.3,41.1,80,50,19,29.92,29.82,5,3,11,0.00
2013-8-5,92.7,72.2,56.5,56.7,52.7,44.9,88,56,20,29.94,29.84,6,4,10,0.00
2013-8-6,91.9,72.1,55.3,55.5,51.6,40.6,92,55,17,29.97,29.85,5,3,9,0.00
2013-8-7,87.3,68.1,54.5,56.4,54.0,50.1,90,65,30,30.00,29.88,8,4,14,0.00
2013-8-8,80.4,67.0,57.1,59.1,55.9,52.6,87,70,47,30.05,29.96,8,5,15,0.00
2013-8-9,85.9,69.3,57.2,58.0,54.6,48.6,90,63,31,29.99,29.85,6,3,9,0.00
2013-8-10,84.5,68.8,55.3,58.3,55.0,49.4,91,65,30,29.95,29.85,6,3,9,0.00
2013-8-11,88.2,71.0,56.9,58.7,56.4,53.7,91,64,31,30.00,29.90,6,3,10,0.00
2013-8-12,92.4,73.8,58.2,59.9,55.9,50.5,92,58,25,29.98,29.84,5,2,9,0.00
2013-8-13,92.6,75.4,58.7,58.2,52.6,44.8,83,50,20,29.95,29.86,5,3,9,0.00
2013-8-14,96.6,79.3,59.3,56.5,51.4,39.3,76,42,14,29.96,29.83,5,2,8,0.00
2013-8-15,98.8,78.5,61.2,57.7,53.3,39.4,78,46,13,29.92,29.80,5,3,8,0.00
2013-8-16,97.5,78.4,62.2,63.6,59.8,50.0,85,58,22,29.91,29.82,5,3,10,0.00
2013-8-17,98.2,80.6,65.2,65.3,58.4,51.8,86,51,23,29.93,29.84,5,3,8,0.00
2013-8-18,96.2,79.1,64.7,62.0,57.4,52.1,71,50,24,29.93,29.76,6,2,10,0.00
2013-8-19,101.3,84.9,65.4,63.8,60.3,57.1,78,47,25,29.85,29.71,4,1,6,0.00
2013-8-20,100.7,85.1,71.8,65.8,61.3,56.1,65,47,28,29.84,29.71,7,2,10,0.00
2013-8-21,97.4,78.9,64.8,66.1,59.6,54.5,72,54,33,29.83,29.71,7,4,12,0.00
2013-8-22,92.0,74.4,62.0,59.3,54.5,41.6,76,54,20,29.87,29.77,7,4,11,0.00
2013-8-23,89.5,71.9,57.5,58.0,54.5,50.1,86,58,27,29.90,29.79,6,4,9,0.00
2013-8-24,92.0,73.0,56.5,57.5,54.9,49.3,89,58,24,29.88,29.72,5,3,7,0.00
2013-8-25,90.0,73.2,60.7,59.2,56.2,51.7,85,58,28,29.85,29.75,8,4,11,0.00
2013-8-26,88.0,73.9,61.6,63.5,59.6,56.6,88,64,36,29.93,29.82,6,4,11,0.00
2013-8-27,90.9,73.7,60.1,60.2,54.9,44.3,90,56,20,29.97,29.83,5,2,9,0.00
2013-8-28,93.7,75.7,59.8,57.3,54.6,50.7,79,52,24,29.85,29.73,5,2,10,0.00
2013-8-29,94.5,76.4,61.8,62.1,57.5,41.7,86,58,17,29.90,29.79,5,3,8,0.00
2013-8-30,94.2,76.9,63.0,63.0,59.4,51.0,90,60,24,30.00,29.90,5,3,8,0.00
2013-8-31,97.9,79.5,62.2,63.4,57.3,48.6,87,51,21,30.00,29.84,5,2,7,0.00
2013-9-1,96.2,78.8,64.9,60.1,53.4,46.3,73,45,19,29.92,29.81,6,3,11,0.00
2013-9-2,92.6,76.2,63.5,60.3,55.9,48.3,76,53,24,29.89,29.80,6,4,11,0.00
2013-9-3,75.7,70.3,64.8,69.1,63.4,59.4,92,79,69,29.92,29.83,4,2,7,0.09
2013-9-4,87.9,73.1,63.3,59.7,56.0,48.5,84,59,27,29.95,29.86,5,3,9,0.00
2013-9-5,89.7,72.9,61.6,59.6,55.5,46.7,84,58,23,29.99,29.86,7,3,10,0.00
2013-9-6,88.7,72.2,60.1,59.4,55.4,47.3,83,59,25,29.96,29.87,6,3,10,0.00
2013-9-7,91.5,74.9,57.0,56.9,51.8,42.8,85,49,19,29.95,29.79,8,2,12,0.00
2013-9-8,99.0,80.4,60.1,56.2,51.7,43.8,76,42,17,29.86,29.75,5,1,7,0.00
2013-9-9,98.9,80.9,62.7,55.1,51.7,39.3,72,40,13,29.83,29.68,6,2,8,0.00
2013-9-10,100.0,82.9,63.8,59.2,53.7,48.9,65,39,21,29.75,29.60,5,2,8,0.00
2013-9-11,89.3,72.7,61.3,61.8,58.2,53.0,88,63,36,29.86,29.66,8,4,13,0.00
2013-9-12,82.3,69.0,60.1,61.1,59.0,56.9,91,72,47,29.95,29.86,5,3,8,0.00
2013-9-13,90.7,73.0,60.5,62.3,59.6,57.2,92,66,34,29.95,29.80,5,2,7,0.00
2013-9-14,94.0,74.7,60.8,62.0,58.5,54.8,88,60,33,29.85,29.66,5,2,7,0.00
2013-9-15,89.7,69.9,60.0,61.5,56.4,53.5,82,65,38,29.76,29.64,6,4,9,0.00
2013-9-16,89.4,70.2,57.2,58.5,55.7,50.0,91,64,28,29.82,29.71,6,4,11,0.00
2013-9-17,88.7,72.1,59.0,61.3,56.6,52.4,93,62,30,29.86,29.70,7,3,9,0.00
2013-9-18,82.2,69.1,58.9,55.9,53.2,48.7,81,59,33,29.84,29.75,8,3,12,0.00
2013-9-19,84.6,69.3,56.5,49.9,47.6,42.4,74,49,23,29.89,29.76,8,3,12,0.00
2013-9-20,91.8,74.1,55.7,50.8,46.7,42.7,70,41,20,29.84,29.69,4,1,7,0.00
2013-9-21,83.2,70.0,59.9,60.6,54.4,43.6,80,60,36,29.82,29.71,8,4,13,0.00
2013-9-22,69.7,61.0,55.1,59.1,56.4,53.0,95,85,62,29.90,29.78,10,2,12,0.45
2013-9-23,74.7,62.5,51.4,55.8,52.4,47.7,96,72,39,29.98,29.90,5,1,9,0.00
2013-9-24,83.5,69.1,52.9,58.3,55.0,50.6,94,64,37,30.00,29.88,5,2,8,0.00
2013-9-25,70.8,63.6,60.8,57.7,55.8,55.1,82,76,60,29.95,29.88,7,4,12,0.00
2013-10-4,67.9,64.4,60.7,31.9,28.7,25.1,33,26,20,29.98,29.94,11,8,14,0.00
2013-10-5,82.0,65.9,51.2,39.1,34.5,30.6,56,33,17,30.13,29.97,11,5,17,0.00
2013-10-6,83.1,64.9,45.6,40.9,36.2,31.3,68,38,16,30.21,30.10,4,1,7,0.00
2013-10-7,86.8,67.4,47.9,44.6,38.9,33.4,70,38,16,30.14,29.95,3,1,7,0.00
2013-10-8,84.8,67.8,50.3,45.2,38.4,29.2,67,38,14,29.98,29.82,5,1,8,0.00
2013-10-9,79.2,62.0,50.3,44.4,41.3,37.1,76,50,24,29.88,29.60,7,2,10,0.00
2013-10-10,74.9,61.7,50.9,44.8,41.4,38.9,73,49,28,29.78,29.56,8,2,13,0.00
2013-10-11,74.1,61.7,52.0,47.8,45.1,42.4,76,56,34,29.99,29.78,8,2,13,0.00
2013-10-12,76.2,62.9,49.5,48.4,46.0,42.1,81,56,34,30.06,29.93,5,1,8,0.00
2013-10-13,77.3,62.3,49.9,48.9,45.8,41.1,82,58,28,29.98,29.83,4,2,8,0.00
2013-10-14,75.0,60.8,49.3,47.5,43.5,40.3,87,57,29,30.05,29.89,7,3,12,0.00
2013-10-15,77.0,61.2,45.2,45.6,41.7,36.7,84,53,24,30.12,29.99,5,1,7,0.00
2013-10-16,81.8,63.0,46.4,42.3,39.0,34.0,78,46,18,30.04,29.92,7,2,11,0.00
2013-10-17,80.8,64.2,50.1,43.7,38.5,30.4,63,41,22,30.10,30.01,3,1,5,0.00
2013-10-18,80.7,62.9,46.7,44.1,40.8,35.1,77,48,20,30.07,29.93,5,1,7,0.00
2013-10-19,83.2,65.2,47.8,45.5,41.5,37.9,76,45,21,30.05,29.96,3,1,6,0.00
2013-10-20,83.9,65.1,47.5,44.7,41.7,38.8,77,46,21,30.07,29.97,3,1,6,0.00
2013-10-21,84.3,65.8,46.0,46.1,42.3,37.9,78,46,20,29.99,29.86,4,1,7,0.00
2013-10-22,84.3,65.5,50.2,48.0,45.1,40.8,74,51,24,29.98,29.87,3,1,6,0.00
2013-10-23,83.8,65.2,48.9,47.1,44.3,39.0,79,50,24,30.00,29.87,5,1,7,0.00
2013-10-24,84.3,65.4,48.7,49.0,42.7,36.1,81,49,19,29.93,29.82,4,1,7,0.00
2013-10-25,74.4,59.4,48.5,51.0,48.4,45.1,92,69,42,30.08,29.91,4,2,6,0.00
2013-10-26,76.2,60.8,47.7,48.9,46.5,43.8,90,63,35,30.16,30.05,5,1,8,0.00
2013-10-27,79.0,62.6,47.3,48.2,45.1,40.2,84,56,28,30.14,29.96,4,1,7,0.00
2013-10-28,70.9,56.8,46.5,49.7,45.7,40.7,90,68,44,29.96,29.57,12,5,18,0.00
2013-10-29,64.0,55.4,45.4,46.1,43.8,40.8,93,67,44,29.89,29.63,6,2,9,0.00
2013-10-30,64.2,56.1,47.6,47.8,45.7,43.6,87,69,50,30.05,29.88,4,1,7,0.00
2013-10-31,67.0,54.1,42.7,45.4,42.9,39.6,90,68,40,30.15,30.05,4,1,7,0.00
2013-11-1,71.3,56.6,43.9,46.1,43.6,39.9,86,64,37,30.18,30.06,4,1,6,0.00
2013-11-2,75.2,59.3,45.2,46.4,44.2,41.0,88,60,31,30.17,30.00,4,1,5,0.00
2013-11-3,75.7,60.8,46.0,49.5,43.6,34.8,82,55,38,30.00,29.85,6,2,9,0.00
2013-11-4,64.1,54.1,44.6,34.8,30.8,28.7,61,42,27,30.02,29.89,10,5,16,0.00
2013-11-5,68.1,55.2,41.5,34.2,30.9,28.2,64,42,23,30.06,29.88,12,5,19,0.00
2013-11-6,70.9,55.7,40.6,38.0,33.8,29.4,70,46,22,30.24,30.05,4,1,7,0.00
2013-11-7,71.9,58.1,44.7,41.5,38.2,35.1,71,50,26,30.28,30.15,3,1,5,0.00
2013-11-8,76.9,61.3,48.9,43.6,40.2,36.8,75,49,24,30.18,30.04,4,1,6,0.00
2013-11-9,75.8,59.1,45.6,43.6,39.7,35.4,71,51,28,30.07,29.93,3,1,6,0.00
2013-11-10,74.9,58.5,43.6,45.5,42.6,38.3,83,58,34,30.04,29.96,2,0,4,0.00
2013-11-11,75.0,58.2,45.3,44.7,42.6,38.9,83,59,31,30.10,30.02,3,0,4,0.00
2013-11-12,72.6,56.2,44.2,46.2,42.0,38.0,88,62,31,30.17,30.06,3,1,4,0.00
2013-11-13,70.5,59.7,50.8,44.2,42.0,40.0,71,54,33,30.26,30.16,6,1,10,0.00
2013-11-14,75.0,59.1,43.5,45.0,42.4,38.7,84,57,31,30.23,30.04,5,1,7,0.00
2013-11-15,68.1,56.7,46.5,50.5,45.8,41.1,89,68,51,30.08,29.81,3,1,6,0.00
2013-11-16,68.1,53.1,41.2,44.7,37.8,33.3,94,61,29,29.82,29.69,7,2,14,0.00
2013-11-17,64.3,53.1,44.5,44.0,39.5,35.8,77,61,40,29.92,29.73,6,2,9,0.00
2013-11-18,64.7,52.2,42.3,48.5,44.0,38.3,89,75,54,30.08,29.92,3,1,4,0.00
2013-11-19,61.6,52.7,41.9,48.1,44.9,39.6,93,76,57,30.14,30.06,5,2,9,0.00
2013-11-20,61.4,55.3,50.1,53.2,50.8,46.8,96,85,69,30.10,29.93,6,1,9,0.43
2013-11-21,56.5,54.7,53.4,55.5,53.8,52.5,98,97,96,29.93,29.83,6,3,11,0.64
2013-11-22,65.9,54.5,46.6,52.8,36.0,25.9,98,54,28,30.02,29.88,13,7,21,0.16
2013-11-23,70.9,56.2,44.2,43.1,25.7,11.1,92,36,11,30.05,29.92,12,6,19,0.00
2013-11-24,63.4,50.3,40.2,47.5,42.6,38.6,95,77,46,30.12,30.00,4,1,6,0.00
2013-11-25,63.3,49.3,38.5,45.2,41.3,35.5,91,75,50,30.28,30.12,3,0,4,0.00
2013-11-26,62.1,48.7,39.1,44.7,41.3,36.5,93,77,51,30.35,30.26,4,1,6,0.00
2013-11-27,55.3,44.9,38.8,44.6,41.0,36.5,95,87,65,30.27,30.05,1,0,2,0.00
2013-11-28,63.0,50.9,42.1,46.3,43.4,39.9,93,77,51,30.05,29.86,4,1,6,0.00
2013-11-29,71.2,54.0,41.5,47.4,42.2,39.0,91,68,34,30.08,29.89,4,1,5,0.00
2013-11-30,67.8,52.9,42.0,44.7,41.8,38.6,88,68,39,30.22,30.09,5,1,7,0.00
2013-12-1,66.3,53.6,43.2,45.0,42.5,39.3,87,68,45,30.28,30.18,5,1,5,0.00
2013-12-2,67.0,56.3,46.6,45.6,44.0,41.7,84,65,45,30.35,30.21,3,1,4,0.00
2013-12-3,66.8,54.0,43.3,49.6,45.6,40.1,90,75,49,30.21,29.85,7,2,15,0.00
2013-12-4,54.2,48.1,35.2,51.3,32.4,21.5,93,58,28,29.93,29.80,9,4,12,0.00
2013-12-5,48.4,37.0,28.4,25.1,21.0,17.6,78,55,30,30.09,29.94,6,2,9,0.00
2013-12-6,47.6,34.9,25.2,25.4,21.8,17.0,85,62,30,30.18,30.09,4,1,7,0.00
2013-12-7,45.8,38.5,29.0,36.4,30.2,23.5,92,73,52,30.22,29.90,10,4,19,0.45
2013-12-8,43.9,36.7,28.1,37.1,31.5,25.9,96,83,51,30.26,29.93,9,2,14,0.01
2013-12-9,42.1,31.9,25.6,28.4,24.6,21.4,93,76,45,30.34,30.25,5,2,11,0.00
2013-12-10,48.9,34.6,22.7,30.3,26.3,20.5,92,74,42,30.45,30.33,4,1,6,0.00
2013-12-11,51.0,37.6,26.2,32.2,28.5,24.6,94,72,41,30.43,30.22,3,1,5,0.00
2013-12-12,55.0,40.9,29.2,34.6,30.8,27.0,93,70,38,30.29,30.20,4,1,5,0.00
2013-12-13,59.0,42.6,28.9,36.3,32.4,26.6,93,70,37,30.29,30.17,3,1,5,0.00
2013-12-14,57.8,43.3,31.4,35.1,32.6,28.4,91,68,41,30.34,30.24,5,2,8,0.00
2013-12-15,58.7,45.2,34.0,37.4,34.1,29.3,86,67,42,30.43,30.33,3,0,4,0.00
2013-12-16,60.3,44.6,31.6,37.6,34.7,29.5,95,71,40,30.39,30.25,2,0,4,0.00
2013-12-17,64.1,48.7,34.5,40.2,37.1,31.9,92,67,41,30.27,30.15,2,0,3,0.00
2013-12-18,62.7,47.8,36.4,43.4,39.3,34.6,93,74,45,30.21,30.02,3,1,0,0.00
2013-12-19,59.0,49.5,41.7,44.9,42.2,38.4,91,77,55,30.03,29.70,3,1,0,0.00
2013-12-20,59.4,47.8,40.2,42.3,31.7,21.8,95,58,30,29.92,29.68,11,5,0,0.00
2013-12-21,60.8,45.5,32.1,34.4,25.9,19.2,76,50,21,30.02,29.91,4,1,0,0.00
2013-12-22,57.6,45.8,37.4,37.7,34.3,31.7,82,66,41,30.13,29.98,4,1,0,0.00
2013-12-23,62.1,46.5,37.8,39.0,36.4,33.8,86,70,41,30.33,30.13,3,1,5,0.00
2013-12-24,62.1,49.0,39.4,42.2,39.1,35.9,88,70,45,30.42,30.32,4,1,7,0.00
2013-12-25,64.4,49.1,36.7,42.7,39.4,34.3,93,72,43,30.33,30.21,2,0,4,0.00
2013-12-26,62.9,48.2,37.2,44.2,39.3,33.5,90,73,48,30.33,30.21,4,1,7,0.00
2013-12-27,64.8,47.9,35.1,40.2,35.1,30.3,88,64,35,30.29,30.19,2,0,3,0.00
2013-12-28,57.3,45.3,36.5,40.0,35.8,30.3,89,71,47,30.28,30.13,3,1,4,0.00
2013-12-29,67.1,47.2,31.0,38.0,33.0,29.2,94,63,27,30.14,30.00,9,2,14,0.00
2013-12-30,63.3,47.1,36.2,39.0,35.0,30.1,79,65,39,30.21,30.12,2,0,4,0.00
2013-12-31,61.5,47.7,33.9,38.9,35.3,29.3,86,64,41,30.28,30.21,2,0,4,0.00
2014-1-1,62.3,47.7,39.3,38.5,35.2,33.4,80,64,34,30.28,30.15,5,1,8,0.00
2014-1-2,64.1,48.6,36.3,37.3,35.0,31.0,81,62,35,30.23,30.13,3,1,5,0.00